Chicago, IL

8:25 AM CST on December 04, 2016 (GMT -0600)
Chicago-Midway

Weather History for KMDW - February, 2014

Change the Weather History Date:

Tuesday, February 4, 2014

  Actual Average Record
Temperature  
Mean Temperature 18 °F 26 °F  
Max Temperature 25 °F 33 °F 54 °F (1993)
Min Temperature 10 °F 19 °F -12 °F (1996)
Degree Days  
Heating Degree Days 47 39  
Month to date heating degree days 187 157  
Since 1 July heating degree days 4105 3653  
Cooling Degree Days 0 0  
Month to date cooling degree days 0 0  
Year to date cooling degree days 0 0  
Moisture  
Dew Point 14 °F    
Average Humidity 75    
Maximum Humidity 93    
Minimum Humidity 46    
Precipitation  
Precipitation 0.02 in 0.05 in 0.69 in (1986)
Month to date precipitation 0.20 0.22  
Year to date precipitation 1.26 2.28  
Snow  
Snow 0.00 in - - ()
Snow Depth 5.00 in    
Sea Level Pressure  
Sea Level Pressure 30.30 in    
Wind  
Wind Speed 7 mph (ENE)    
Max Wind Speed 22 mph    
Max Gust Speed 25 mph    
Visibility 6 miles    
Events Snow    
T = Trace of Precipitation, MM = Missing Value Source: NWS Daily Summary

Daily Weather History Graph

Daily Weather History Graph

Search for Another Location

Airport or City:

Trip Planner

Search our weather history database for the weather conditions in past years. The results will help you decide how hot, cold, wet, or windy it might be!

Date:

Astronomy

Feb. 04, 2014 Rise Set
Actual Time 7:00 AM CST 5:10 PM CST
Civil Twilight 6:30 AM CST 5:39 PM CST
Nautical Twilight 5:57 AM CST 6:12 PM CST
Astronomical Twilight 5:25 AM CST 6:45 PM CST
Moon 9:32 AM CST 11:10 PM CST
Length of Visible Light 11h 08m
Length of Day
10h 10m
Waxing Crescent, 29% of the Moon is Illuminated
Feb 4
Waxing Crescent
Feb 6
First Quarter
Feb 14
Full
Feb 22
Last Quarter
Mar 1
New

Hourly Weather History & Observations

Time (CST) Temp. Windchill Dew Point Humidity Pressure Visibility Wind Dir Wind Speed Gust Speed Precip Events Conditions
12:51 AM 12.0 °F - 3.0 °F 67% 30.43 in 10.0 mi Calm Calm - N/A   Mostly Cloudy
1:51 AM 12.9 °F - 3.0 °F 65% 30.43 in 10.0 mi Calm Calm - N/A   Overcast
2:51 AM 12.0 °F 5.9 °F 3.9 °F 70% 30.44 in 10.0 mi WNW 3.5 mph - N/A   Overcast
3:51 AM 12.0 °F - 3.0 °F 67% 30.47 in 10.0 mi Calm Calm - N/A   Overcast
4:51 AM 12.0 °F - 3.9 °F 70% 30.46 in 10.0 mi Calm Calm - N/A   Overcast
5:51 AM 14.0 °F - 3.9 °F 64% 30.45 in 10.0 mi Calm Calm - N/A   Overcast
6:51 AM 16.0 °F - 5.0 °F 62% 30.46 in 10.0 mi Calm Calm - N/A   Overcast
7:51 AM 16.0 °F - 7.0 °F 68% 30.46 in 10.0 mi Calm Calm - N/A   Overcast
8:51 AM 19.0 °F 13.9 °F 7.0 °F 59% 30.46 in 10.0 mi North 3.5 mph - N/A   Overcast
9:51 AM 21.0 °F 16.2 °F 10.9 °F 65% 30.44 in 10.0 mi Variable 3.5 mph - N/A   Overcast
10:51 AM 23.0 °F - 12.9 °F 65% 30.43 in 10.0 mi Calm Calm - N/A   Overcast
11:51 AM 23.0 °F 15.8 °F 14.0 °F 68% 30.40 in 10.0 mi ENE 5.8 mph - N/A   Overcast
12:51 PM 24.1 °F 17.0 °F 15.1 °F 69% 30.37 in 10.0 mi ENE 5.8 mph - N/A   Overcast
1:51 PM 24.1 °F 14.4 °F 16.0 °F 71% 30.34 in 10.0 mi ENE 9.2 mph - N/A   Overcast
2:51 PM 24.1 °F 15.2 °F 17.1 °F 75% 30.35 in 10.0 mi ENE 8.1 mph - N/A   Overcast
3:51 PM 25.0 °F 14.8 °F 16.0 °F 69% 30.31 in 10.0 mi East 10.4 mph - N/A   Overcast
4:51 PM 24.1 °F 13.7 °F 17.1 °F 75% 30.31 in 7.0 mi East 10.4 mph - 0.00 in Snow Light Snow
5:26 PM 24.8 °F 12.9 °F 17.6 °F 74% 30.22 in 2.0 mi East 13.8 mph - 0.00 in Snow Light Snow
5:34 PM 24.8 °F 12.9 °F 17.6 °F 74% 30.22 in 1.5 mi East 13.8 mph - 0.00 in Snow Light Snow
5:41 PM 24.8 °F 12.9 °F 19.4 °F 80% 30.22 in 0.8 mi East 13.8 mph - 0.00 in Snow Light Snow
5:51 PM 23.0 °F 11.7 °F 19.9 °F 88% 30.27 in 1.0 mi East 11.5 mph - 0.00 in Snow Light Snow
6:12 PM 21.2 °F 10.1 °F 19.4 °F 93% 30.24 in 2.0 mi ESE 10.4 mph - 0.00 in Snow Light Snow
6:51 PM 21.9 °F 9.8 °F 18.0 °F 85% 30.27 in 3.0 mi East 12.7 mph - 0.00 in Snow Light Snow
7:05 PM 21.2 °F 10.9 °F 19.4 °F 93% 30.21 in 2.0 mi East 9.2 mph - 0.00 in Snow Light Snow
7:19 PM 21.2 °F 10.1 °F 19.4 °F 93% 30.18 in 1.2 mi East 10.4 mph - 0.00 in Snow Light Snow
7:41 PM 21.2 °F 9.5 °F 19.4 °F 93% 30.15 in 2.0 mi ENE 11.5 mph - 0.00 in Snow Light Snow
7:51 PM 21.9 °F 8.2 °F 19.0 °F 89% 30.20 in 2.0 mi East 16.1 mph 20.7 mph 0.00 in Snow Light Snow
8:42 PM 23.0 °F 10.1 °F 19.4 °F 86% 30.13 in 3.0 mi ENE 15.0 mph - 0.00 in Snow Light Snow
8:51 PM 23.0 °F 10.1 °F 19.0 °F 85% 30.19 in 3.0 mi ENE 15.0 mph - 0.00 in Snow Light Snow
9:31 PM 23.0 °F 11.7 °F 19.4 °F 86% 30.14 in 3.0 mi NE 11.5 mph - 0.00 in Snow Light Snow
9:51 PM 23.0 °F 12.4 °F 19.9 °F 88% 30.19 in 2.5 mi ENE 10.4 mph - 0.00 in Snow Light Snow
10:13 PM 23.0 °F 10.1 °F 19.4 °F 86% 30.11 in 3.0 mi ENE 15.0 mph 21.9 mph 0.00 in Snow Light Snow
10:43 PM 23.0 °F 9.6 °F 19.4 °F 86% 30.09 in 2.0 mi NE 16.1 mph - 0.00 in Snow Light Snow
10:51 PM 24.1 °F 10.6 °F 19.9 °F 84% 30.13 in 2.0 mi NE 17.3 mph - 0.01 in Snow Light Snow
11:51 PM 24.1 °F 12.5 °F 19.9 °F 84% 30.12 in 2.0 mi NE 12.7 mph - 0.00 in Snow Light Snow